Weather in Khorey-Ver

Russia / Nenets Autonomous Okrug     67°25′14″N   58°02′55″E
temp.,
°C
wind,
m/s
gust,
m/s
humid.,
%
clouds,
%
prec.,
mm/h
press.,
hPa
HPBL,
m
27 february, sat
sat2700:00−22s5109281 0.0 1015195
03:00−23s599489 0.0 1016183
06:00−24s599572 0.0 1015138
09:00−23s5119558 0.0 1015239
12:00−20s5119442 0.0 1015302
15:00−20s5109463 0.0 1015209
18:00−20s5119591 0.0 1013196
21:00−19s5109595 0.0 1013247
28 february, sun
sun2800:00−19s51095100 0.0 1012248
03:00−19s51095100 0.0 1012247
06:00−20s51195100 0.0 1011270
09:00−19ssw6997100 0.3 1011356
12:00−17ssw5895100 0.4 1012414
15:00−17ssw4895100 0.6 1012361
18:00−18ssw479792 0.1 1011195
21:00−18ssw489789 0.2 1012188
1 march, mon
mon100:00−20ssw499987 0.0 1011142
03:00−19ssw5109790 0.1 1010222
06:00−17ssw61295100 0.1 1007287
09:00−16ssw71494100 0.2 1005347
12:00−14ssw91794100 0.1 1002432
15:00−13ssw101694100 0.6 999519
18:00−12ssw101794100 1.3 995662
21:00−10ssw91694100 2.6 993663
2 march, tue
tue200:00−10ssw91594100 0.7 991581
03:00−10ssw81494100 1.4 991504
06:00−10ssw71293100 0.6 991423
09:00−10ssw71194100 0.9 992435
12:00−10s71194100 0.9 992469
15:00−10s61094100 1.7 993437
18:00−11s61094100 0.7 993378
21:00−12s61095100 1.2 993323
3 march, wed
wed300:00−12s5995100 0.5 992297
03:00−13s589595 0.8 992249
06:00−13s489595 0.1 992239
09:00−12s589495 0.3 992281
12:00−11s4794100 0.1 993358
15:00−11sse4795100 0.2 993301
18:00−13sse469699 0.1 99391
21:00−13sse239798 0.1 99324